Regional Weather Roundup
Issued by NWS Mobile, AL

Home | Current Version | Previous Version | Text Only | Print | Product List | Glossary On
Versions: 1 2 3 4 5 6 7 8 9 10 11 12 13 14 15 16 17 18 19 20 21 22 23 24 25 26 27 28 29 30 31 32 33 34 35 36 37 38 39 40 41 42 43 44 45 46 47 48 49 50
225
ASUS44 KMOB 221416
RWRMOB
REGIONAL WEATHER ROUNDUP
NATIONAL WEATHER SERVICE MOBILE AL
900 AM CDT FRI MAY 22 2015

ALZ061>064-221500-
COASTAL ALABAMA


CITY           SKY/WX    TMP DP  RH WIND       PRES   REMARKS
MOBILE REG APT MOSUNNY   64  54  69 N12       30.20S
BROOKLEY FIELD SUNNY     66  55  67 N13       30.21R
GULF SHORES    MOSUNNY   66  56  71 N8        30.18S

$$

ALZ051>060-221500-
INTERIOR SOUTHWEST AND SOUTH CENTRAL ALABAMA


CITY           SKY/WX    TMP DP  RH WIND       PRES   REMARKS
ANDALUSIA/OPP  SUNNY     69  50  50 N10       30.20S
EVERGREEN      MOSUNNY   63  52  67 NE10      30.22S
FLORALA        MOSUNNY   63  50  62 N8        30.21R
GREENVILLE     NOT AVBL

$$

FLZ001>006-221500-
WESTERN FLORIDA PANHANDLE


CITY           SKY/WX    TMP DP  RH WIND       PRES   REMARKS
CRESTVIEW      SUNNY     69  54  58 NE9       30.20R
DESTIN         MOSUNNY   69  57  65 N9        30.17R
DUKE FIELD     FAIR      66  52  60 NE8       30.17R HAZE
MARY ESTHER    MOSUNNY   67  54  62 N13G23    30.16R
MILTON         PTSUNNY   68  55  63 NE10      30.19R
PENSACOLA      PTSUNNY   66  55  67 N13       30.18R
NAS PENSACOLA  PTSUNNY   69  56  62 N14       30.17S
VALPARAISO     PTSUNNY   68  53  60 N12       30.18R

$$

...MARINE OBSERVATIONS...

STATION/POSITION TIME  SKY/WX   TEMP    WIND        PRES    VSBY
                                AIR SEA DIR/SP/G
                 (UTC)          (F)     (DEG/KT/KT) (MB)    (MI)
PASCAGOULA       1300            62      10/ 12/ 17 1021.3R
PETIT BOIS ISL   1300            63      30/ 17/ 22 1021.6S
E DAUPHIN ISLAND 1400            65      40/ 14/ 16 1021.6R
MIDDLE BAY LIGHT 1300            64      20/ 19     1021.7R
USCG MOBILE BAY  1300            62 80   20/  9/ 12 1021.4R
STATE DOCKS      1300            63 78              1022.1R
MEAHER PARK      1300            61      10/  7     1022.4R
FORT MORGAN      1300            64      40/ 16/ 19 1021.1R
12 S ORANGE BCH  1350            67 80   20/ 14/ 16 1020.9R
WVE H/P(F/S)=  2/ 3

PENSACOLA BAY    1300            65 82   30/  8/ 12 1022.0R
64 S DAUPHIN ISL 1350            75 81   40/ 19/ 23 1020.8R
WVE H/P(F/S)=  4/ 5

67 S FORT MORGAN 1330            77      50/ 17     1019.6R
115 SE PENSACOLA 1350            78 81   50/ 14/ 16 1020.0R
WVE H/P(F/S)=  2/ 4

MID GULF/42001   1350            81 82   CALM  /  2 1019.8R
WVE H/P(F/S)=  1/ 5

EAST GULF/42003  1350            81 83  360/  4/  4 1019.6R
WVE H/P(F/S)=  1


$$

...NEARBY LOCATIONS

CITY           SKY/WX    TMP DP  RH WIND       PRES   REMARKS
GULFPORT       CLOUDY    64  54  69 NE12      30.18S
BILOXI         CLOUDY    64  56  77 NE12      30.18R
PASCAGOULA     CLOUDY    65  56  72 N15       30.18S
HATTIESBURG    PTSUNNY   62  52  69 E8        30.22F
LAUREL         MOSUNNY   59  48  67 NE9G16    30.23F
MERIDIAN       SUNNY     60  48  64 NE12      30.26S
MERIDIAN NAS   MOSUNNY   60  48  64 NE6       30.27S
MONTGOMERY     MOSUNNY   63  48  58 VRB7      30.24R
MAXWELL AFB    MOSUNNY   62  49  62 VRB6      30.23R
TROY           PTSUNNY   61  50  67 N9        30.22R
FORT RUCKER    SUNNY     66  51  58 NE9       30.19R
DALEVILLE      MOSUNNY   65  51  58 N7        30.19R
DOTHAN         SUNNY     64  51  62 N6        30.22R

$$

...OTHER SURROUNDING LOCATIONS...

CITY           SKY/WX    TMP DP  RH WIND       PRES   REMARKS
BIRMINGHAM     PTSUNNY   58  47  66 VRB5      30.27S
TUSCALOOSA     SUNNY     60  48  64 NE8       30.28S
COLUMBUS GA    SUNNY     62  47  57 VRB5      30.20R
PANAMA CITY    NOT AVBL
TALLAHASSEE    PTSUNNY   72  55  55 N12       30.15R
BATON ROUGE    CLOUDY    66  60  81 E8        30.19R
NEW ORLEANS    CLOUDY    69  62  78 NE12      30.17S
SLIDELL        PTSUNNY   66  58  75 NE9       30.18S
JACKSON        MOSUNNY   60  49  66 NE12      30.25S
MCCOMB         SUNNY     61  53  75 VRB6      30.21S

$$

...SURROUNDING MARINE OBSERVATIONS...

STATION/POSITION TIME  SKY/WX   TEMP    WIND        PRES    VSBY
                                AIR SEA DIR/SP/G
                 (UTC)          (F)     (DEG/KT/KT) (MB)    (MI)
WAVELAND         1300            62 76   30/ 13/ 16 1021.8R
PASCAGOULA RGN A 1300            63      30/  9/ 13 1021.2R
PASCAGOULA PORT  1300               80                N/A
GRAND ISLE       1300            73 83   40/ 11/ 18 1020.5R
SOUTHWEST PASS   1400            75      40/ 23/ 25 1020.2R
PILOT STATION E  1300            79 74   30/ 19/ 21 1020.1R
SHELL BEACH      1300            67 81   20/ 13/ 15 1021.0R
PANAMA CITY      1300            69 82   20/  8/ 13 1020.1R
APALACHICOLA     1300            70 83   20/  8/  9 1019.6R
TYNDALL TOWER C  1400            72      20/ 12/ 13 1020.1R
S APLCHCLA/42036 1350            80 80   50/ 10/ 12 1019.6R
WVE H/P(F/S)=  1/ 3


$$




USA.gov is the U.S. government's official web portal to all federal, state and local government web resources and services.